User: anonymous   Login
Location: Unspecified
(0.0000°N, 0.0000°E)
Time: 02:05:21
(UTC+00:00)
Language:

SEEDS - Orbit

View from above orbital plane
View from above orbital plane
View from above satellite
View from above satellite

Ground track
Ground track

The orbit data is extracted from the following two-line orbital elements,

1 32791U 08021J   18170.48624906 +.00000241 +00000-0 +29964-4 0  9990
2 32791 097.5357 187.9190 0013818 017.9910 342.1795 14.90567078549773
Epoch (UTC): 19 June 2018 11:40:11
Eccentricity: 0.0013818
inclination: 97.5357°
perigee height: 586 km
apogee height: 606 km
right ascension of ascending node: 187.9190°
argument of perigee: 17.9910°
revolutions per day: 14.90567078
mean anomaly at epoch: 342.1795°
orbit number at epoch: 54977

The dashed part of the orbit path shows where the satellite is in the earth's shadow,  

DLR